Weather in Samagaltay

Russia / Tyva Republic     50°36′01″N   95°00′18″E
temp.,
°C
wind,
m/s
gust,
m/s
humid.,
%
clouds,
%
prec.,
mm/h
press.,
hPa
HPBL,
m
22 january, sat
sat2201:00−18ene119799 0.3 10329
04:00−19ene1197100 0.1 10329
07:00−19ese0098100 0.2 10339
10:00−17sw1196100 0.1 103366
13:00−16wsw2194100 0.4 1033202
16:00−16wsw2196100 0.3 1034149
19:00−18ene1198100 0.4 10369
22:00−19ene2197100 0.1 103810
23 january, sun
sun2301:00−18ene119797 0.2 103810
04:00−18ene119694 0.1 103710
07:00−19ene119789 0.1 103910
10:00−20ene1196100 0.1 104011
13:00−16sw119294 0.1 1038188
16:00−19w0110059 0.0 103910
19:00−23ne339639 0.0 104311
22:00−23ne329684 0.0 104411
24 january, mon
mon2401:00−23ene329692 0.1 104311
04:00−24ne229797 0.0 104311
07:00−24ne229797 0.1 104411
10:00−22ne119796 0.1 104314
13:00−19w119793 0.1 1040147
16:00−21wnw1110071 0.0 104110
19:00−25ne329678 0.0 104311
22:00−25nne2297100 0.0 104410
25 january, tue
tue2501:00−26ne2198100 0.0 10459
04:00−27ene1197100 0.0 10469
07:00−27ene1196100 0.1 104610
10:00−25sse0195100 0.0 104549
13:00−23ssw219896 0.1 1044136
16:00−25ssw119979 0.0 104422
19:00−28ene229885 0.1 104710
22:00−29ene229683 0.0 104810
26 january, wed
wed2601:00−29ene229664 0.0 104810
04:00−29ene329658 0.0 104711
07:00−29ne229675 0.0 104810
10:00−25ene119681 0.0 104625
13:00−23wsw119668 0.0 1044162
16:00−24w119965 0.0 104413
19:00−29ne329632 0.0 104710
22:00−29ne229591 0.0 104810